Flag for Canada Weather past 2 weeks in Steinbach, Manitoba, Canada

Now
27 °F

Chilly.


Feels Like: 27 °F
Forecast: 20 / 28 °F
Wind: 2 mph from East

Location: Winnipeg The Forks

Current Time: Dec 20, 2014 at 4:27:26 AM

Latest Report: Dec 20, 2014 at 4:00 AM


Visibility: N/A

Pressure: 30.04 "Hg

Humidity: 94%

Dew point: 25 °F

Location of SteinbachLocation

Historic Weather in Steinbach — Graph

°F

Steinbach temperature yesterday

Maximum temperature yesterday: 28 °F (at 11:00 PM)
Minimum temperature yesterday: 20 °F (at 12:00 AM)
Average temperature yesterday: 24 °F

Past Weeks' High & Low Weather Summary

 TemperatureHumidityPressure
High35 °F (Dec 13, 8:00 PM)100% (Dec 13, 11:00 AM)30.61 "Hg (Dec 13, 11:00 AM)
Low1 °F (Dec 17, 7:00 AM)67% (Dec 7, 1:00 AM)29.83 "Hg (Dec 12, 6:00 PM)
Average20 °F85%30.17 "Hg
* Reported Dec 5 3:00 AM — Dec 20 3:00 AM, Steinbach, Weather by CustomWeather, © 2014

Note: Actual official high and low records may vary slightly from our data, if they occured in-between our weather recording intervals... More about our weather records

Advertising

Steinbach weather history for previous 24 hours

 ConditionsComfort  
Time TempWeatherWind HumidityBarometerVisibility
3:00 AM
Dec 20
27 °FChilly.1 mph92%30.05 "HgN/A
2:00 AM27 °FChilly.No wind93%30.04 "HgN/A
1:00 AM29 °FChilly.1 mph85%30.05 "HgN/A
12:00 AM28 °FChilly.No wind94%30.05 "HgN/A
11:00 PM
Dec 19
28 °FChilly.2 mph94%30.05 "HgN/A
10:00 PM27 °FChilly.1 mph95%30.06 "HgN/A
9:00 PM27 °FChilly.1 mph94%30.06 "HgN/A
8:00 PM27 °FChilly.1 mph94%30.06 "HgN/A
7:00 PM27 °FChilly.2 mph93%30.07 "HgN/A
6:00 PM27 °FChilly.1 mph94%30.07 "HgN/A
5:00 PM27 °FChilly.1 mph93%30.07 "HgN/A
4:00 PM27 °FChilly.2 mph92%30.06 "HgN/A
3:00 PM26 °FChilly.2 mph92%30.05 "HgN/A
2:00 PM26 °FChilly.2 mph99%30.05 "HgN/A
1:00 PM25 °FChilly.1 mph94%30.07 "HgN/A
12:00 PM24 °FCold.2 mph94%30.09 "HgN/A
11:00 AM24 °FCold.2 mph93%30.10 "HgN/A
10:00 AM23 °FCold.1 mph94%30.11 "HgN/A
9:00 AM23 °FCold.1 mph94%30.11 "HgN/A
8:00 AM22 °FCold.1 mph94%30.10 "HgN/A
7:00 AM22 °FCold.2 mph100%30.11 "HgN/A
6:00 AM22 °FCold.2 mph93%30.11 "HgN/A
5:00 AM21 °FCold.2 mph94%30.12 "HgN/A
4:00 AM21 °FCold.2 mph92%30.13 "HgN/A
Weather by CustomWeather, © 2014

See weather overviewHow to use our weather pages